Wetterdaten: Dienstag, 31.05.2016
Datum Zeit Auen-Temp. Temp gefhlt Luftfeuchte Luftdruck Regen Wind Richtung Richtung Sonnenschein Taupunkt Windben
31.05.2016 00:00 10,3 C 10,2 C 86 % 1011,4 hPa 0,0 mm 0,0 km/h (0 Bft) N-NW 337 0 min 8,1 C 0,0 km/h (0 Bft)
31.05.2016 00:05 10,4 C 10,2 C 86 % 1011,4 hPa 0,0 mm 0,0 km/h (0 Bft) SW 225 0 min 8,2 C 0,0 km/h (0 Bft)
31.05.2016 00:10 10,3 C 10,1 C 86 % 1011,4 hPa 0,0 mm 0,0 km/h (0 Bft) O-NO 67 0 min 8,1 C 0,0 km/h (0 Bft)
31.05.2016 00:15 10,3 C 10,2 C 86 % 1011,4 hPa 0,0 mm 0,0 km/h (0 Bft) N 360 0 min 8,1 C 0,0 km/h (0 Bft)
31.05.2016 00:20 10,3 C 10,2 C 86 % 1011,4 hPa 0,0 mm 0,0 km/h (0 Bft) N-NO 22 0 min 8,1 C 0,0 km/h (0 Bft)
31.05.2016 00:25 10,3 C 10,1 C 86 % 1011,4 hPa 0,0 mm 0,0 km/h (0 Bft) O-NO 67 0 min 8,1 C 0,0 km/h (0 Bft)
31.05.2016 00:30 10,3 C 10,1 C 86 % 1011,5 hPa 0,0 mm 0,0 km/h (0 Bft) O-NO 67 0 min 8,1 C 0,0 km/h (0 Bft)
31.05.2016 00:35 10,2 C 10,1 C 86 % 1011,5 hPa 0,0 mm 0,0 km/h (0 Bft) NW 315 0 min 8,0 C 0,0 km/h (0 Bft)
31.05.2016 00:40 10,2 C 10,0 C 86 % 1011,5 hPa 0,0 mm 0,0 km/h (0 Bft) N-NW 337 0 min 8,0 C 0,0 km/h (0 Bft)
31.05.2016 00:45 10,2 C 10,0 C 86 % 1011,5 hPa 0,0 mm 0,0 km/h (0 Bft) NW 315 0 min 8,0 C 0,0 km/h (0 Bft)
31.05.2016 00:50 10,2 C 10,0 C 86 % 1011,4 hPa 0,0 mm 0,0 km/h (0 Bft) NW 315 0 min 8,0 C 0,0 km/h (0 Bft)
31.05.2016 00:53 10,2 C 10,0 C 86 % 1011,4 hPa 0,0 mm 0,0 km/h (0 Bft) NW 315 0 min 8,0 C 0,0 km/h (0 Bft)
31.05.2016 00:54 10,2 C 10,0 C 86 % 1011,4 hPa 0,0 mm 0,0 km/h (0 Bft) NW 315 0 min 8,0 C 0,0 km/h (0 Bft)
31.05.2016 00:55 10,2 C 10,0 C 86 % 1011,4 hPa 0,0 mm 0,0 km/h (0 Bft) NW 315 0 min 8,0 C 0,0 km/h (0 Bft)
31.05.2016 01:00 10,1 C 10,0 C 86 % 1011,4 hPa 0,0 mm 0,0 km/h (0 Bft) NO 45 0 min 7,9 C 0,0 km/h (0 Bft)
31.05.2016 01:05 10,2 C 10,0 C 86 % 1011,4 hPa 0,0 mm 0,0 km/h (0 Bft) N-NO 22 0 min 8,0 C 0,0 km/h (0 Bft)
31.05.2016 01:10 10,1 C 9,9 C 87 % 1011,4 hPa 0,0 mm 0,0 km/h (0 Bft) W 270 0 min 8,0 C 0,0 km/h (0 Bft)
31.05.2016 01:15 10,1 C 9,9 C 87 % 1011,4 hPa 0,0 mm 0,0 km/h (0 Bft) N-NO 22 0 min 8,0 C 0,0 km/h (0 Bft)
31.05.2016 01:20 10,1 C 9,9 C 87 % 1011,4 hPa 0,0 mm 0,0 km/h (0 Bft) SW 225 0 min 8,0 C 0,0 km/h (0 Bft)
31.05.2016 01:25 10,1 C 9,9 C 87 % 1011,4 hPa 0,0 mm 0,0 km/h (0 Bft) NW 315 0 min 8,0 C 0,0 km/h (0 Bft)
31.05.2016 01:30 10,1 C 9,9 C 87 % 1011,4 hPa 0,0 mm 0,0 km/h (0 Bft) W 270 0 min 8,0 C 0,0 km/h (0 Bft)
31.05.2016 01:35 10,1 C 9,9 C 87 % 1011,4 hPa 0,0 mm 0,0 km/h (0 Bft) N-NW 337 0 min 8,0 C 0,0 km/h (0 Bft)
31.05.2016 01:40 10,1 C 9,9 C 87 % 1011,4 hPa 0,0 mm 0,0 km/h (0 Bft) N 360 0 min 8,0 C 0,0 km/h (0 Bft)
31.05.2016 01:45 10,1 C 9,9 C 87 % 1011,4 hPa 0,0 mm 0,0 km/h (0 Bft) NO 45 0 min 8,0 C 0,0 km/h (0 Bft)
31.05.2016 01:50 10,0 C 9,9 C 87 % 1011,4 hPa 0,0 mm 0,0 km/h (0 Bft) N-NO 22 0 min 7,9 C 0,0 km/h (0 Bft)
31.05.2016 01:55 10,0 C 9,8 C 87 % 1011,4 hPa 0,0 mm 0,0 km/h (0 Bft) N-NO 22 0 min 7,9 C 0,0 km/h (0 Bft)
31.05.2016 02:00 9,9 C 9,8 C 87 % 1011,4 hPa 0,0 mm 0,0 km/h (0 Bft) N-NO 22 0 min 7,8 C 0,0 km/h (0 Bft)
31.05.2016 02:05 9,9 C 9,7 C 87 % 1011,4 hPa 0,0 mm 0,0 km/h (0 Bft) NW 315 0 min 7,8 C 0,0 km/h (0 Bft)
31.05.2016 02:10 9,9 C 9,7 C 87 % 1011,1 hPa 0,0 mm 0,0 km/h (0 Bft) N 360 0 min 7,8 C 0,0 km/h (0 Bft)
31.05.2016 02:15 9,9 C 9,7 C 87 % 1011,1 hPa 0,0 mm 0,0 km/h (0 Bft) N 360 0 min 7,8 C 0,0 km/h (0 Bft)
31.05.2016 02:20 9,8 C 9,6 C 87 % 1011,1 hPa 0,0 mm 0,0 km/h (0 Bft) NW 315 0 min 7,7 C 0,0 km/h (0 Bft)
31.05.2016 02:25 9,9 C 9,7 C 87 % 1011,1 hPa 0,0 mm 0,0 km/h (0 Bft) N-NW 337 0 min 7,8 C 8,3 km/h (2 Bft)
31.05.2016 02:30 9,9 C 9,7 C 87 % 1010,8 hPa 0,0 mm 0,6 km/h (0 Bft) NW 315 0 min 7,8 C 0,0 km/h (0 Bft)
31.05.2016 02:35 9,8 C 9,6 C 87 % 1010,8 hPa 0,0 mm 0,6 km/h (0 Bft) O 90 0 min 7,7 C 0,0 km/h (0 Bft)
31.05.2016 02:40 9,8 C 9,5 C 87 % 1010,8 hPa 0,0 mm 0,0 km/h (0 Bft) S-SW 202 0 min 7,7 C 0,0 km/h (0 Bft)
31.05.2016 02:45 9,7 C 9,4 C 87 % 1010,8 hPa 0,0 mm 0,0 km/h (0 Bft) NW 315 0 min 7,6 C 0,0 km/h (0 Bft)
31.05.2016 02:50 9,6 C 9,3 C 87 % 1011,0 hPa 0,0 mm 0,0 km/h (0 Bft) NO 45 0 min 7,5 C 0,0 km/h (0 Bft)
31.05.2016 02:55 9,6 C 9,3 C 87 % 1011,0 hPa 0,0 mm 0,0 km/h (0 Bft) N-NW 337 0 min 7,5 C 0,0 km/h (0 Bft)
31.05.2016 03:00 9,5 C 9,3 C 87 % 1011,0 hPa 0,0 mm 0,0 km/h (0 Bft) NW 315 0 min 7,4 C 0,0 km/h (0 Bft)
31.05.2016 03:05 9,5 C 9,2 C 87 % 1011,0 hPa 0,0 mm 0,0 km/h (0 Bft) W-NW 292 0 min 7,4 C 0,0 km/h (0 Bft)
31.05.2016 03:10 9,5 C 9,3 C 87 % 1011,0 hPa 0,0 mm 0,0 km/h (0 Bft) NW 315 0 min 7,4 C 0,0 km/h (0 Bft)
31.05.2016 03:15 9,5 C 9,3 C 87 % 1011,0 hPa 0,0 mm 0,0 km/h (0 Bft) NW 315 0 min 7,4 C 0,0 km/h (0 Bft)
31.05.2016 03:20 9,4 C 9,2 C 87 % 1011,0 hPa 0,0 mm 0,0 km/h (0 Bft) N 360 0 min 7,3 C 0,0 km/h (0 Bft)
31.05.2016 03:25 9,4 C 9,2 C 87 % 1011,0 hPa 0,0 mm 0,0 km/h (0 Bft) O 90 0 min 7,3 C 0,0 km/h (0 Bft)
31.05.2016 03:30 9,5 C 9,2 C 87 % 1011,1 hPa 0,0 mm 0,0 km/h (0 Bft) S 180 0 min 7,4 C 0,0 km/h (0 Bft)
31.05.2016 03:35 9,5 C 9,2 C 87 % 1011,1 hPa 0,0 mm 0,0 km/h (0 Bft) N-NW 337 0 min 7,4 C 0,0 km/h (0 Bft)
31.05.2016 03:40 9,4 C 9,1 C 87 % 1011,1 hPa 0,0 mm 0,0 km/h (0 Bft) N-NO 22 0 min 7,3 C 0,0 km/h (0 Bft)
31.05.2016 03:45 9,4 C 9,0 C 87 % 1011,1 hPa 0,0 mm 0,0 km/h (0 Bft) N-NO 22 0 min 7,3 C 0,0 km/h (0 Bft)
31.05.2016 03:50 9,4 C 9,0 C 87 % 1010,9 hPa 0,0 mm 0,0 km/h (0 Bft) O-SO 112 0 min 7,3 C 0,0 km/h (0 Bft)
31.05.2016 03:53 9,3 C 9,0 C 87 % 1010,9 hPa 0,0 mm 0,0 km/h (0 Bft) W-NW 292 0 min 7,2 C 0,0 km/h (0 Bft)
31.05.2016 03:55 9,3 C 9,0 C 87 % 1010,9 hPa 0,0 mm 0,0 km/h (0 Bft) W-NW 292 0 min 7,2 C 0,0 km/h (0 Bft)
31.05.2016 04:00 9,3 C 9,0 C 87 % 1010,9 hPa 0,0 mm 0,0 km/h (0 Bft) W-SW 247 0 min 7,2 C 0,0 km/h (0 Bft)
31.05.2016 04:05 9,2 C 8,9 C 87 % 1010,9 hPa 0,0 mm 0,0 km/h (0 Bft) S 180 0 min 7,2 C 0,0 km/h (0 Bft)
31.05.2016 04:10 9,2 C 8,9 C 87 % 1010,9 hPa 0,0 mm 0,0 km/h (0 Bft) NW 315 0 min 7,2 C 0,0 km/h (0 Bft)
31.05.2016 04:15 9,1 C 8,9 C 87 % 1010,9 hPa 0,0 mm 0,0 km/h (0 Bft) W-SW 247 0 min 7,1 C 0,0 km/h (0 Bft)
31.05.2016 04:20 9,1 C 8,9 C 87 % 1010,9 hPa 0,0 mm 0,0 km/h (0 Bft) SO 135 0 min 7,1 C 0,0 km/h (0 Bft)
31.05.2016 04:25 9,1 C 8,8 C 87 % 1010,9 hPa 0,0 mm 0,0 km/h (0 Bft) O 90 0 min 7,1 C 0,0 km/h (0 Bft)
31.05.2016 04:30 9,0 C 8,7 C 87 % 1011,0 hPa 0,0 mm 0,0 km/h (0 Bft) N-NO 22 0 min 7,0 C 0,0 km/h (0 Bft)
31.05.2016 04:35 8,9 C 8,6 C 87 % 1011,0 hPa 0,0 mm 0,0 km/h (0 Bft) NW 315 0 min 6,9 C 0,0 km/h (0 Bft)
31.05.2016 04:40 8,8 C 8,5 C 87 % 1011,0 hPa 0,0 mm 0,0 km/h (0 Bft) N 360 0 min 6,8 C 0,0 km/h (0 Bft)
31.05.2016 04:45 8,8 C 8,4 C 87 % 1011,0 hPa 0,0 mm 0,0 km/h (0 Bft) N-NO 22 0 min 6,8 C 0,0 km/h (0 Bft)
31.05.2016 04:50 8,7 C 8,2 C 87 % 1011,1 hPa 0,0 mm 0,0 km/h (0 Bft) N-NW 337 0 min 6,7 C 0,0 km/h (0 Bft)
31.05.2016 04:55 8,5 C 8,1 C 87 % 1011,1 hPa 0,0 mm 0,0 km/h (0 Bft) NW 315 0 min 6,5 C 0,0 km/h (0 Bft)
31.05.2016 05:00 8,4 C 8,0 C 87 % 1011,1 hPa 0,0 mm 0,0 km/h (0 Bft) N-NO 22 0 min 6,4 C 0,0 km/h (0 Bft)
31.05.2016 05:05 8,4 C 8,0 C 87 % 1011,1 hPa 0,7 mm 0,0 km/h (0 Bft) N-NW 337 0 min 6,4 C 0,0 km/h (0 Bft)
31.05.2016 05:10 8,5 C 8,0 C 87 % 1011,1 hPa 0,0 mm 0,0 km/h (0 Bft) NO 45 0 min 6,5 C 0,0 km/h (0 Bft)
31.05.2016 05:15 8,4 C 8,0 C 87 % 1011,1 hPa 0,0 mm 0,0 km/h (0 Bft) O-NO 67 0 min 6,4 C 0,0 km/h (0 Bft)
31.05.2016 05:20 8,3 C 8,0 C 87 % 1011,1 hPa 0,0 mm 0,0 km/h (0 Bft) SO 135 0 min 6,3 C 0,0 km/h (0 Bft)
31.05.2016 05:25 8,4 C 8,1 C 87 % 1011,1 hPa 0,0 mm 0,0 km/h (0 Bft) W-SW 247 0 min 6,4 C 0,0 km/h (0 Bft)
31.05.2016 05:30 8,4 C 8,2 C 87 % 1011,3 hPa 0,0 mm 0,0 km/h (0 Bft) O-NO 67 0 min 6,4 C 0,0 km/h (0 Bft)
31.05.2016 05:35 8,4 C 8,3 C 87 % 1011,3 hPa 0,0 mm 0,0 km/h (0 Bft) W 270 0 min 6,4 C 0,0 km/h (0 Bft)
31.05.2016 05:40 8,4 C 8,4 C 87 % 1011,3 hPa 0,0 mm 0,0 km/h (0 Bft) NW 315 0 min 6,4 C 0,0 km/h (0 Bft)
31.05.2016 05:45 8,4 C 8,3 C 87 % 1011,3 hPa 0,0 mm 0,0 km/h (0 Bft) O-NO 67 0 min 6,4 C 0,0 km/h (0 Bft)
31.05.2016 05:50 8,5 C 8,4 C 87 % 1011,4 hPa 0,0 mm 0,0 km/h (0 Bft) O 90 0 min 6,5 C 0,0 km/h (0 Bft)
31.05.2016 05:55 8,6 C 8,5 C 87 % 1011,4 hPa 0,0 mm 0,0 km/h (0 Bft) N-NO 22 0 min 6,6 C 0,0 km/h (0 Bft)
31.05.2016 06:00 8,7 C 8,8 C 87 % 1011,4 hPa 0,0 mm 2,4 km/h (1 Bft) S 180 0 min 6,7 C 11,9 km/h (2 Bft)
31.05.2016 06:05 8,8 C 8,9 C 87 % 1011,4 hPa 0,0 mm 3,0 km/h (1 Bft) S 180 0 min 6,8 C 5,7 km/h (1 Bft)
31.05.2016 06:10 9,0 C 9,0 C 87 % 1011,3 hPa 0,0 mm 3,6 km/h (1 Bft) S-SO 157 0 min 7,0 C 0,0 km/h (0 Bft)
31.05.2016 06:15 9,1 C 9,1 C 87 % 1011,3 hPa 0,0 mm 1,5 km/h (1 Bft) N-NO 22 0 min 7,1 C 0,0 km/h (0 Bft)
31.05.2016 06:20 9,2 C 9,2 C 87 % 1011,3 hPa 0,0 mm 0,0 km/h (0 Bft) N-NO 22 0 min 7,2 C 0,0 km/h (0 Bft)
31.05.2016 06:25 9,2 C 9,3 C 87 % 1011,3 hPa 0,0 mm 0,0 km/h (0 Bft) N-NO 22 0 min 7,2 C 0,0 km/h (0 Bft)
31.05.2016 06:30 9,3 C 9,4 C 87 % 1011,4 hPa 0,0 mm 0,0 km/h (0 Bft) N-NW 337 0 min 7,2 C 0,0 km/h (0 Bft)
31.05.2016 06:35 9,3 C 9,4 C 87 % 1011,4 hPa 0,0 mm 0,0 km/h (0 Bft) S-SO 157 0 min 7,2 C 0,0 km/h (0 Bft)
31.05.2016 06:40 9,3 C 9,5 C 87 % 1011,4 hPa 0,0 mm 0,0 km/h (0 Bft) O-SO 112 0 min 7,2 C 0,0 km/h (0 Bft)
31.05.2016 06:45 9,6 C 9,9 C 87 % 1011,4 hPa 0,0 mm 0,0 km/h (0 Bft) NO 45 0 min 7,5 C 0,0 km/h (0 Bft)
31.05.2016 06:50 10,8 C 12,2 C 88 % 1011,4 hPa 0,0 mm 0,0 km/h (0 Bft) NW 315 0 min 8,9 C 0,0 km/h (0 Bft)
31.05.2016 06:53 11,4 C 14,1 C 87 % 1011,4 hPa 0,0 mm 0,0 km/h (0 Bft) N 360 3 min 9,3 C 0,0 km/h (0 Bft)
31.05.2016 06:56 11,4 C 14,1 C 87 % 1011,4 hPa 0,0 mm 0,0 km/h (0 Bft) N 360 3 min 9,3 C 0,0 km/h (0 Bft)
31.05.2016 07:00 10,7 C 14,6 C 87 % 1011,4 hPa 0,0 mm 0,0 km/h (0 Bft) O-NO 67 4 min 8,6 C 0,0 km/h (0 Bft)
31.05.2016 07:05 10,8 C 14,2 C 87 % 1011,4 hPa 0,0 mm 0,0 km/h (0 Bft) N-NO 22 5 min 8,7 C 0,0 km/h (0 Bft)
31.05.2016 07:10 10,7 C 13,4 C 87 % 1012,2 hPa 0,0 mm 0,0 km/h (0 Bft) NO 45 5 min 8,6 C 0,0 km/h (0 Bft)
31.05.2016 07:15 10,9 C 13,0 C 87 % 1012,2 hPa 0,0 mm 0,0 km/h (0 Bft) SW 225 0 min 8,8 C 0,0 km/h (0 Bft)
31.05.2016 07:20 12,0 C 15,0 C 87 % 1012,2 hPa 0,0 mm 0,0 km/h (0 Bft) N-NO 22 5 min 9,9 C 0,0 km/h (0 Bft)
31.05.2016 07:25 12,6 C 17,1 C 87 % 1012,2 hPa 0,0 mm 0,0 km/h (0 Bft) W-NW 292 5 min 10,5 C 0,0 km/h (0 Bft)
31.05.2016 07:30 12,5 C 17,1 C 86 % 1012,3 hPa 0,0 mm 0,0 km/h (0 Bft) NO 45 5 min 10,2 C 0,0 km/h (0 Bft)
31.05.2016 07:35 12,3 C 16,7 C 86 % 1012,3 hPa 0,0 mm 0,0 km/h (0 Bft) NO 45 5 min 10,0 C 0,0 km/h (0 Bft)
31.05.2016 07:40 12,2 C 15,8 C 86 % 1012,3 hPa 0,0 mm 0,0 km/h (0 Bft) N-NO 22 5 min 9,9 C 0,0 km/h (0 Bft)
31.05.2016 07:45 12,1 C 15,2 C 85 % 1012,3 hPa 0,0 mm 0,0 km/h (0 Bft) SW 225 5 min 9,7 C 0,0 km/h (0 Bft)
31.05.2016 07:50 12,2 C 14,5 C 85 % 1012,1 hPa 0,0 mm 0,0 km/h (0 Bft) S 180 5 min 9,8 C 0,0 km/h (0 Bft)
31.05.2016 07:55 12,1 C 14,3 C 85 % 1012,1 hPa 0,0 mm 0,0 km/h (0 Bft) N-NO 22 0 min 9,7 C 0,0 km/h (0 Bft)
31.05.2016 08:00 12,4 C 14,5 C 85 % 1012,1 hPa 0,0 mm 0,0 km/h (0 Bft) NW 315 0 min 9,9 C 0,0 km/h (0 Bft)
31.05.2016 08:05 13,1 C 15,7 C 84 % 1012,1 hPa 0,0 mm 0,0 km/h (0 Bft) N-NW 337 5 min 10,5 C 0,0 km/h (0 Bft)
31.05.2016 08:10 13,9 C 18,2 C 84 % 1012,1 hPa 0,0 mm 0,0 km/h (0 Bft) NW 315 5 min 11,2 C 0,0 km/h (0 Bft)
31.05.2016 08:15 14,4 C 19,1 C 83 % 1012,1 hPa 0,0 mm 0,0 km/h (0 Bft) NW 315 5 min 11,5 C 0,0 km/h (0 Bft)
31.05.2016 08:20 14,1 C 18,8 C 82 % 1012,1 hPa 0,0 mm 0,0 km/h (0 Bft) N 360 5 min 11,1 C 0,0 km/h (0 Bft)
31.05.2016 08:25 13,7 C 18,3 C 81 % 1012,1 hPa 0,0 mm 0,0 km/h (0 Bft) N-NO 22 5 min 10,5 C 0,0 km/h (0 Bft)
31.05.2016 08:30 13,7 C 17,9 C 81 % 1012,3 hPa 0,0 mm 0,0 km/h (0 Bft) N 360 5 min 10,5 C 0,0 km/h (0 Bft)
31.05.2016 08:35 13,7 C 17,6 C 80 % 1012,3 hPa 0,0 mm 0,0 km/h (0 Bft) N-NO 22 5 min 10,3 C 0,0 km/h (0 Bft)
31.05.2016 08:40 13,6 C 16,7 C 80 % 1012,3 hPa 0,0 mm 0,0 km/h (0 Bft) NO 45 5 min 10,2 C 0,0 km/h (0 Bft)
31.05.2016 08:45 13,6 C 16,2 C 79 % 1012,3 hPa 0,0 mm 1,2 km/h (1 Bft) NO 45 5 min 10,0 C 8,9 km/h (2 Bft)
31.05.2016 08:50 13,8 C 16,0 C 79 % 1012,9 hPa 0,0 mm 5,1 km/h (1 Bft) O-NO 67 0 min 10,2 C 12,5 km/h (3 Bft)
31.05.2016 08:55 14,5 C 18,1 C 78 % 1012,9 hPa 0,0 mm 6,3 km/h (2 Bft) N-NO 22 5 min 10,7 C 10,7 km/h (2 Bft)
31.05.2016 09:00 14,9 C 19,6 C 77 % 1012,9 hPa 0,0 mm 5,7 km/h (1 Bft) O-NO 67 5 min 10,9 C 4,8 km/h (1 Bft)
31.05.2016 09:05 15,1 C 21,1 C 77 % 1012,9 hPa 0,0 mm 5,7 km/h (1 Bft) O-NO 67 5 min 11,1 C 6,6 km/h (2 Bft)
31.05.2016 09:10 16,0 C 22,5 C 74 % 1012,3 hPa 0,0 mm 5,7 km/h (1 Bft) N-NW 337 5 min 11,4 C 13,1 km/h (3 Bft)
31.05.2016 09:15 16,1 C 22,7 C 73 % 1012,3 hPa 0,0 mm 6,3 km/h (2 Bft) NO 45 5 min 11,3 C 8,6 km/h (2 Bft)
31.05.2016 09:20 15,4 C 21,0 C 72 % 1012,3 hPa 0,0 mm 4,8 km/h (1 Bft) N-NO 22 5 min 10,4 C 12,8 km/h (3 Bft)
31.05.2016 09:25 15,2 C 19,9 C 72 % 1012,3 hPa 0,0 mm 4,5 km/h (1 Bft) N-NO 22 5 min 10,2 C 10,1 km/h (2 Bft)
31.05.2016 09:30 15,2 C 20,0 C 70 % 1013,1 hPa 0,0 mm 5,7 km/h (1 Bft) N 360 5 min 9,8 C 6,3 km/h (2 Bft)
31.05.2016 09:35 15,1 C 20,0 C 70 % 1013,1 hPa 0,0 mm 4,8 km/h (1 Bft) NW 315 5 min 9,7 C 5,7 km/h (1 Bft)
31.05.2016 09:40 15,1 C 19,8 C 70 % 1013,1 hPa 0,0 mm 4,8 km/h (1 Bft) N 360 5 min 9,7 C 6,0 km/h (2 Bft)
31.05.2016 09:45 15,4 C 20,3 C 71 % 1013,1 hPa 0,0 mm 5,1 km/h (1 Bft) N-NO 22 5 min 10,2 C 7,5 km/h (2 Bft)
31.05.2016 09:50 15,0 C 19,3 C 70 % 1013,2 hPa 0,0 mm 6,9 km/h (2 Bft) NO 45 5 min 9,6 C 9,5 km/h (2 Bft)
31.05.2016 09:55 14,9 C 18,9 C 71 % 1013,2 hPa 0,0 mm 7,2 km/h (2 Bft) N-NO 22 5 min 9,7 C 8,9 km/h (2 Bft)
31.05.2016 09:57 14,9 C 18,9 C 71 % 1013,2 hPa 0,0 mm 7,2 km/h (2 Bft) N-NO 22 2 min 9,7 C 8,9 km/h (2 Bft)
31.05.2016 10:00 15,0 C 18,4 C 71 % 1013,2 hPa 0,0 mm 6,6 km/h (2 Bft) N-NO 22 3 min 9,8 C 3,6 km/h (1 Bft)
31.05.2016 10:05 15,1 C 18,4 C 71 % 1013,2 hPa 0,0 mm 6,3 km/h (2 Bft) N-NO 22 5 min 9,9 C 8,9 km/h (2 Bft)
31.05.2016 10:10 15,6 C 19,4 C 71 % 1013,4 hPa 0,0 mm 6,6 km/h (2 Bft) N-NO 22 5 min 10,4 C 17,0 km/h (3 Bft)
31.05.2016 10:15 15,3 C 19,2 C 69 % 1013,4 hPa 0,0 mm 8,0 km/h (2 Bft) N-NO 22 5 min 9,6 C 15,8 km/h (3 Bft)
31.05.2016 10:20 15,0 C 18,3 C 69 % 1013,4 hPa 0,0 mm 7,7 km/h (2 Bft) O-NO 67 5 min 9,4 C 13,7 km/h (3 Bft)
31.05.2016 10:25 14,9 C 17,8 C 69 % 1013,4 hPa 0,0 mm 8,3 km/h (2 Bft) O-NO 67 5 min 9,3 C 9,5 km/h (2 Bft)
31.05.2016 10:30 14,9 C 17,6 C 69 % 1013,4 hPa 0,0 mm 8,9 km/h (2 Bft) N-NO 22 5 min 9,3 C 7,5 km/h (2 Bft)
31.05.2016 10:35 14,8 C 17,6 C 69 % 1013,4 hPa 0,0 mm 8,3 km/h (2 Bft) NW 315 5 min 9,2 C 9,5 km/h (2 Bft)
31.05.2016 10:40 15,1 C 17,8 C 69 % 1013,4 hPa 0,0 mm 7,5 km/h (2 Bft) NO 45 5 min 9,5 C 6,0 km/h (2 Bft)
31.05.2016 10:45 15,1 C 18,0 C 70 % 1013,4 hPa 0,0 mm 6,9 km/h (2 Bft) W-NW 292 5 min 9,7 C 8,3 km/h (2 Bft)
31.05.2016 10:50 15,2 C 18,4 C 69 % 1013,4 hPa 0,0 mm 7,2 km/h (2 Bft) NO 45 5 min 9,6 C 9,8 km/h (2 Bft)
31.05.2016 10:55 15,2 C 18,6 C 69 % 1013,4 hPa 0,0 mm 7,5 km/h (2 Bft) O-NO 67 5 min 9,6 C 12,2 km/h (2 Bft)
31.05.2016 11:00 15,7 C 18,8 C 71 % 1013,4 hPa 0,0 mm 7,7 km/h (2 Bft) NW 315 5 min 10,5 C 14,3 km/h (3 Bft)
31.05.2016 11:05 15,5 C 18,6 C 69 % 1013,4 hPa 0,0 mm 8,6 km/h (2 Bft) NO 45 5 min 9,8 C 12,5 km/h (3 Bft)
31.05.2016 11:10 15,1 C 18,2 C 70 % 1013,6 hPa 0,0 mm 8,0 km/h (2 Bft) N-NW 337 5 min 9,7 C 6,9 km/h (2 Bft)
31.05.2016 11:15 15,4 C 18,3 C 71 % 1013,6 hPa 0,0 mm 7,2 km/h (2 Bft) N-NO 22 5 min 10,2 C 12,5 km/h (3 Bft)
31.05.2016 11:20 15,5 C 18,6 C 71 % 1013,6 hPa 0,0 mm 5,1 km/h (1 Bft) N-NO 22 5 min 10,3 C 0,0 km/h (0 Bft)
31.05.2016 11:25 15,4 C 18,9 C 70 % 1013,6 hPa 0,0 mm 4,2 km/h (1 Bft) N-NO 22 5 min 10,0 C 0,0 km/h (0 Bft)
31.05.2016 11:30 15,7 C 19,3 C 70 % 1013,6 hPa 0,0 mm 3,9 km/h (1 Bft) NO 45 5 min 10,2 C 6,9 km/h (2 Bft)
31.05.2016 11:35 15,7 C 19,4 C 70 % 1013,6 hPa 0,0 mm 5,1 km/h (1 Bft) N-NO 22 5 min 10,2 C 9,8 km/h (2 Bft)
31.05.2016 11:40 15,9 C 19,6 C 70 % 1013,6 hPa 0,0 mm 4,8 km/h (1 Bft) NO 45 5 min 10,4 C 3,9 km/h (1 Bft)
31.05.2016 11:45 15,8 C 19,3 C 70 % 1013,6 hPa 0,0 mm 5,4 km/h (1 Bft) NW 315 5 min 10,3 C 13,4 km/h (3 Bft)
31.05.2016 11:50 15,5 C 18,5 C 71 % 1013,7 hPa 0,0 mm 5,1 km/h (1 Bft) N-NO 22 5 min 10,3 C 12,2 km/h (2 Bft)
31.05.2016 11:55 15,3 C 18,0 C 71 % 1013,7 hPa 0,0 mm 6,3 km/h (2 Bft) O 90 5 min 10,1 C 11,9 km/h (2 Bft)
31.05.2016 12:00 15,2 C 17,3 C 71 % 1013,7 hPa 0,0 mm 8,6 km/h (2 Bft) N-NO 22 0 min 10,0 C 7,5 km/h (2 Bft)
31.05.2016 12:05 15,2 C 17,2 C 71 % 1013,7 hPa 0,0 mm 9,8 km/h (2 Bft) NO 45 0 min 10,0 C 13,1 km/h (3 Bft)
31.05.2016 12:10 15,5 C 17,9 C 71 % 1013,8 hPa 0,0 mm 8,9 km/h (2 Bft) N 360 0 min 10,3 C 14,9 km/h (3 Bft)
31.05.2016 12:15 15,7 C 18,4 C 70 % 1013,8 hPa 0,0 mm 8,3 km/h (2 Bft) NO 45 5 min 10,2 C 12,2 km/h (2 Bft)
31.05.2016 12:20 16,0 C 18,6 C 70 % 1013,8 hPa 0,0 mm 8,3 km/h (2 Bft) N 360 5 min 10,5 C 10,4 km/h (2 Bft)
31.05.2016 12:25 15,9 C 18,5 C 69 % 1013,8 hPa 0,0 mm 8,6 km/h (2 Bft) NO 45 5 min 10,2 C 10,7 km/h (2 Bft)
31.05.2016 12:30 15,7 C 18,4 C 69 % 1013,9 hPa 0,0 mm 6,9 km/h (2 Bft) NO 45 5 min 10,0 C 7,5 km/h (2 Bft)
31.05.2016 12:35 15,7 C 18,2 C 69 % 1013,9 hPa 0,0 mm 5,4 km/h (1 Bft) NO 45 5 min 10,0 C 9,2 km/h (2 Bft)
31.05.2016 12:40 15,8 C 18,2 C 70 % 1013,9 hPa 0,0 mm 5,7 km/h (1 Bft) N-NW 337 0 min 10,3 C 3,6 km/h (1 Bft)
31.05.2016 12:45 16,0 C 18,5 C 69 % 1013,9 hPa 0,0 mm 5,7 km/h (1 Bft) NO 45 0 min 10,3 C 7,2 km/h (2 Bft)
31.05.2016 12:50 16,1 C 18,7 C 69 % 1013,5 hPa 0,0 mm 5,1 km/h (1 Bft) O 90 5 min 10,4 C 7,2 km/h (2 Bft)
31.05.2016 12:55 16,1 C 19,0 C 69 % 1013,5 hPa 0,0 mm 4,8 km/h (1 Bft) NO 45 5 min 10,4 C 12,5 km/h (3 Bft)
31.05.2016 12:58 16,1 C 19,3 C 68 % 1013,5 hPa 0,0 mm 6,6 km/h (2 Bft) NO 45 3 min 10,2 C 10,1 km/h (2 Bft)
31.05.2016 13:00 16,1 C 19,3 C 68 % 1013,5 hPa 0,0 mm 6,6 km/h (2 Bft) NO 45 2 min 10,2 C 10,1 km/h (2 Bft)
31.05.2016 13:05 16,0 C 19,1 C 68 % 1013,5 hPa 0,0 mm 8,9 km/h (2 Bft) N-NO 22 5 min 10,1 C 3,3 km/h (1 Bft)
31.05.2016 13:10 16,2 C 18,9 C 68 % 1013,6 hPa 0,0 mm 8,9 km/h (2 Bft) N-NW 337 5 min 10,3 C 20,3 km/h (4 Bft)
31.05.2016 13:15 16,2 C 18,8 C 68 % 1013,6 hPa 0,0 mm 6,9 km/h (2 Bft) NO 45 5 min 10,3 C 12,8 km/h (3 Bft)
31.05.2016 13:20 16,1 C 18,4 C 68 % 1013,6 hPa 0,0 mm 6,6 km/h (2 Bft) N-NO 22 0 min 10,2 C 8,3 km/h (2 Bft)
31.05.2016 13:25 16,1 C 18,2 C 68 % 1013,6 hPa 0,0 mm 6,6 km/h (2 Bft) N-NO 22 0 min 10,2 C 6,9 km/h (2 Bft)
31.05.2016 13:30 16,2 C 18,3 C 68 % 1013,6 hPa 0,0 mm 7,2 km/h (2 Bft) NO 45 0 min 10,3 C 11,3 km/h (2 Bft)
31.05.2016 13:35 16,1 C 18,2 C 69 % 1013,6 hPa 0,0 mm 7,2 km/h (2 Bft) N-NW 337 0 min 10,4 C 11,3 km/h (2 Bft)
31.05.2016 13:40 15,9 C 17,5 C 69 % 1013,6 hPa 0,0 mm 8,6 km/h (2 Bft) O 90 0 min 10,2 C 9,5 km/h (2 Bft)
31.05.2016 13:45 15,6 C 17,2 C 70 % 1013,6 hPa 0,0 mm 8,6 km/h (2 Bft) N-NO 22 0 min 10,1 C 15,2 km/h (3 Bft)
31.05.2016 13:50 15,7 C 17,0 C 70 % 1013,5 hPa 0,0 mm 8,3 km/h (2 Bft) N 360 0 min 10,2 C 10,7 km/h (2 Bft)
31.05.2016 13:55 15,7 C 16,9 C 70 % 1013,5 hPa 0,0 mm 7,2 km/h (2 Bft) O-NO 67 0 min 10,2 C 4,8 km/h (1 Bft)
31.05.2016 14:00 15,5 C 16,4 C 70 % 1013,5 hPa 0,0 mm 7,2 km/h (2 Bft) N-NW 337 0 min 10,1 C 11,0 km/h (2 Bft)
31.05.2016 14:05 15,5 C 15,6 C 71 % 1013,5 hPa 0,0 mm 7,7 km/h (2 Bft) NW 315 0 min 10,3 C 11,3 km/h (2 Bft)
31.05.2016 14:10 15,2 C 14,7 C 72 % 1013,4 hPa 0,0 mm 7,7 km/h (2 Bft) W 270 0 min 10,2 C 14,3 km/h (3 Bft)
31.05.2016 14:15 14,8 C 14,3 C 72 % 1013,4 hPa 0,0 mm 8,9 km/h (2 Bft) N 360 0 min 9,8 C 12,8 km/h (3 Bft)
31.05.2016 14:20 14,5 C 14,0 C 73 % 1013,4 hPa 0,0 mm 6,3 km/h (2 Bft) NW 315 0 min 9,7 C 3,0 km/h (1 Bft)
31.05.2016 14:25 14,4 C 13,9 C 73 % 1013,4 hPa 0,0 mm 3,3 km/h (1 Bft) NO 45 0 min 9,6 C 0,0 km/h (0 Bft)
31.05.2016 14:30 14,1 C 13,8 C 74 % 1013,5 hPa 0,0 mm 2,1 km/h (1 Bft) O-SO 112 0 min 9,5 C 0,0 km/h (0 Bft)
31.05.2016 14:35 13,7 C 13,4 C 75 % 1013,5 hPa 0,0 mm 0,9 km/h (0 Bft) S-SO 157 0 min 9,3 C 0,0 km/h (0 Bft)
31.05.2016 14:40 13,5 C 13,1 C 76 % 1013,5 hPa 0,0 mm 0,0 km/h (0 Bft) SO 135 0 min 9,4 C 0,0 km/h (0 Bft)
31.05.2016 14:45 13,3 C 13,0 C 76 % 1013,5 hPa 0,0 mm 0,0 km/h (0 Bft) S-SO 157 0 min 9,2 C 0,0 km/h (0 Bft)
31.05.2016 14:50 13,2 C 12,9 C 77 % 1013,5 hPa 0,0 mm 1,5 km/h (1 Bft) S 180 0 min 9,3 C 6,0 km/h (2 Bft)
31.05.2016 14:55 13,1 C 12,7 C 78 % 1013,5 hPa 0,0 mm 2,4 km/h (1 Bft) S 180 0 min 9,4 C 3,6 km/h (1 Bft)
31.05.2016 15:00 12,7 C 12,5 C 79 % 1013,5 hPa 0,7 mm 1,8 km/h (1 Bft) SO 135 0 min 9,2 C 0,0 km/h (0 Bft)
31.05.2016 15:05 12,6 C 12,4 C 79 % 1013,5 hPa 0,0 mm 0,6 km/h (0 Bft) S 180 0 min 9,1 C 0,0 km/h (0 Bft)
31.05.2016 15:10 12,6 C 12,5 C 80 % 1013,6 hPa 0,7 mm 0,0 km/h (0 Bft) SW 225 0 min 9,2 C 0,0 km/h (0 Bft)
31.05.2016 15:15 12,6 C 12,5 C 80 % 1013,6 hPa 0,7 mm 0,0 km/h (0 Bft) S 180 0 min 9,2 C 0,0 km/h (0 Bft)
31.05.2016 15:20 12,5 C 12,5 C 81 % 1013,6 hPa 0,0 mm 0,0 km/h (0 Bft) S 180 0 min 9,3 C 0,0 km/h (0 Bft)
31.05.2016 15:25 12,5 C 12,5 C 81 % 1013,6 hPa 0,7 mm 0,0 km/h (0 Bft) S-SO 157 0 min 9,3 C 0,0 km/h (0 Bft)
31.05.2016 15:30 12,4 C 12,4 C 81 % 1013,4 hPa 0,7 mm 0,0 km/h (0 Bft) S-SO 157 0 min 9,2 C 0,0 km/h (0 Bft)
31.05.2016 15:35 12,4 C 12,4 C 82 % 1013,4 hPa 0,7 mm 0,0 km/h (0 Bft) SO 135 0 min 9,4 C 0,0 km/h (0 Bft)
31.05.2016 15:40 12,3 C 12,4 C 82 % 1013,4 hPa 1,4 mm 0,0 km/h (0 Bft) S-SO 157 0 min 9,3 C 0,0 km/h (0 Bft)
31.05.2016 15:45 12,3 C 12,4 C 83 % 1013,4 hPa 0,7 mm 0,0 km/h (0 Bft) S 180 0 min 9,5 C 0,0 km/h (0 Bft)
31.05.2016 15:50 12,3 C 12,4 C 83 % 1013,4 hPa 0,7 mm 0,0 km/h (0 Bft) SW 225 0 min 9,5 C 0,0 km/h (0 Bft)
31.05.2016 15:55 12,4 C 12,5 C 83 % 1013,4 hPa 0,7 mm 0,0 km/h (0 Bft) W-SW 247 0 min 9,6 C 0,0 km/h (0 Bft)
31.05.2016 15:58 12,3 C 12,5 C 83 % 1013,4 hPa 0,7 mm 0,0 km/h (0 Bft) S-SW 202 0 min 9,5 C 0,0 km/h (0 Bft)
31.05.2016 15:59 12,3 C 12,5 C 83 % 1013,4 hPa 0,0 mm 0,0 km/h (0 Bft) S-SW 202 0 min 9,5 C 0,0 km/h (0 Bft)
31.05.2016 16:00 12,3 C 12,5 C 83 % 1013,4 hPa 0,0 mm 0,0 km/h (0 Bft) S-SW 202 0 min 9,5 C 0,0 km/h (0 Bft)
31.05.2016 16:05 12,3 C 12,4 C 84 % 1013,4 hPa 0,0 mm 0,0 km/h (0 Bft) S 180 0 min 9,7 C 0,0 km/h (0 Bft)
31.05.2016 16:10 12,3 C 12,4 C 84 % 1013,4 hPa 0,0 mm 0,0 km/h (0 Bft) S-SO 157 0 min 9,7 C 0,0 km/h (0 Bft)
31.05.2016 16:15 12,3 C 12,5 C 84 % 1013,4 hPa 0,7 mm 0,0 km/h (0 Bft) S-SO 157 0 min 9,7 C 0,0 km/h (0 Bft)
31.05.2016 16:20 12,3 C 12,5 C 85 % 1013,4 hPa 0,0 mm 0,0 km/h (0 Bft) S 180 0 min 9,9 C 0,0 km/h (0 Bft)
31.05.2016 16:25 12,3 C 12,6 C 85 % 1013,4 hPa 0,0 mm 0,0 km/h (0 Bft) S-SO 157 0 min 9,9 C 0,0 km/h (0 Bft)
31.05.2016 16:30 12,4 C 12,8 C 85 % 1013,5 hPa 0,7 mm 0,0 km/h (0 Bft) S-SO 157 0 min 9,9 C 0,0 km/h (0 Bft)
31.05.2016 16:35 12,6 C 13,0 C 85 % 1013,5 hPa 0,0 mm 0,9 km/h (0 Bft) S 180 0 min 10,1 C 10,1 km/h (2 Bft)
31.05.2016 16:40 12,8 C 13,2 C 85 % 1013,5 hPa 0,0 mm 1,5 km/h (1 Bft) W-SW 247 0 min 10,3 C 0,0 km/h (0 Bft)
31.05.2016 16:45 12,9 C 13,3 C 85 % 1013,5 hPa 0,0 mm 1,2 km/h (1 Bft) S-SW 202 0 min 10,4 C 0,0 km/h (0 Bft)
31.05.2016 16:50 13,0 C 13,5 C 84 % 1013,3 hPa 0,0 mm 0,0 km/h (0 Bft) W 270 0 min 10,4 C 0,0 km/h (0 Bft)
31.05.2016 16:55 13,0 C 13,3 C 84 % 1013,3 hPa 0,0 mm 0,0 km/h (0 Bft) S-SO 157 0 min 10,4 C 0,0 km/h (0 Bft)
31.05.2016 17:00 13,0 C 13,4 C 84 % 1013,3 hPa 0,0 mm 0,0 km/h (0 Bft) O-SO 112 0 min 10,4 C 0,0 km/h (0 Bft)
31.05.2016 17:05 13,2 C 13,5 C 84 % 1013,3 hPa 0,0 mm 0,0 km/h (0 Bft) W 270 0 min 10,6 C 0,0 km/h (0 Bft)
31.05.2016 17:10 13,3 C 13,6 C 84 % 1013,2 hPa 0,0 mm 0,0 km/h (0 Bft) O 90 0 min 10,7 C 0,0 km/h (0 Bft)
31.05.2016 17:15 13,2 C 13,5 C 84 % 1013,2 hPa 0,0 mm 0,0 km/h (0 Bft) SO 135 0 min 10,6 C 0,0 km/h (0 Bft)
31.05.2016 17:20 13,1 C 13,5 C 84 % 1013,2 hPa 0,0 mm 0,0 km/h (0 Bft) O-SO 112 0 min 10,5 C 0,0 km/h (0 Bft)
31.05.2016 17:25 13,1 C 13,5 C 84 % 1013,2 hPa 0,0 mm 0,0 km/h (0 Bft) S-SW 202 0 min 10,5 C 0,0 km/h (0 Bft)
31.05.2016 17:30 13,1 C 13,5 C 84 % 1013,1 hPa 0,0 mm 0,0 km/h (0 Bft) S 180 0 min 10,5 C 0,0 km/h (0 Bft)
31.05.2016 17:35 13,1 C 13,6 C 84 % 1013,1 hPa 0,0 mm 0,0 km/h (0 Bft) SO 135 0 min 10,5 C 0,0 km/h (0 Bft)
31.05.2016 17:40 13,3 C 13,8 C 84 % 1013,1 hPa 0,0 mm 0,0 km/h (0 Bft) SW 225 0 min 10,7 C 0,0 km/h (0 Bft)
31.05.2016 17:45 13,4 C 13,7 C 84 % 1013,1 hPa 0,0 mm 0,0 km/h (0 Bft) SO 135 0 min 10,8 C 0,0 km/h (0 Bft)
31.05.2016 17:50 13,5 C 13,9 C 83 % 1013,0 hPa 0,0 mm 0,0 km/h (0 Bft) W-SW 247 0 min 10,7 C 0,0 km/h (0 Bft)
31.05.2016 17:55 13,6 C 13,9 C 83 % 1013,0 hPa 0,0 mm 0,0 km/h (0 Bft) W-SW 247 0 min 10,8 C 0,0 km/h (0 Bft)
31.05.2016 18:00 13,7 C 14,1 C 83 % 1013,0 hPa 0,0 mm 0,0 km/h (0 Bft) W-SW 247 0 min 10,9 C 0,0 km/h (0 Bft)
31.05.2016 18:05 13,7 C 14,3 C 83 % 1013,0 hPa 0,0 mm 0,0 km/h (0 Bft) W-SW 247 0 min 10,9 C 0,0 km/h (0 Bft)
31.05.2016 18:10 13,9 C 14,4 C 84 % 1013,2 hPa 0,0 mm 0,3 km/h (0 Bft) S 180 0 min 11,2 C 0,0 km/h (0 Bft)
31.05.2016 18:15 14,0 C 14,5 C 83 % 1013,2 hPa 0,0 mm 0,3 km/h (0 Bft) SW 225 0 min 11,2 C 0,0 km/h (0 Bft)
31.05.2016 18:20 14,2 C 14,7 C 83 % 1013,2 hPa 0,0 mm 0,6 km/h (0 Bft) W-NW 292 0 min 11,4 C 0,0 km/h (0 Bft)
31.05.2016 18:25 14,2 C 14,6 C 83 % 1013,2 hPa 0,0 mm 0,6 km/h (0 Bft) W-NW 292 0 min 11,4 C 0,0 km/h (0 Bft)
31.05.2016 18:30 14,2 C 14,5 C 83 % 1013,1 hPa 0,0 mm 0,0 km/h (0 Bft) W-SW 247 0 min 11,4 C 0,0 km/h (0 Bft)
31.05.2016 18:35 14,2 C 14,3 C 83 % 1013,1 hPa 0,0 mm 0,0 km/h (0 Bft) W 270 0 min 11,4 C 0,0 km/h (0 Bft)
31.05.2016 18:40 14,1 C 14,2 C 83 % 1013,1 hPa 0,0 mm 0,0 km/h (0 Bft) S-SW 202 0 min 11,3 C 0,0 km/h (0 Bft)
31.05.2016 18:45 14,0 C 14,2 C 83 % 1013,1 hPa 0,0 mm 0,0 km/h (0 Bft) W-SW 247 0 min 11,2 C 0,0 km/h (0 Bft)
31.05.2016 18:50 13,9 C 14,2 C 83 % 1013,2 hPa 0,0 mm 0,0 km/h (0 Bft) S 180 0 min 11,1 C 0,0 km/h (0 Bft)
31.05.2016 18:55 13,9 C 14,1 C 83 % 1013,2 hPa 0,0 mm 0,0 km/h (0 Bft) SO 135 0 min 11,1 C 0,0 km/h (0 Bft)
31.05.2016 18:58 13,7 C 14,0 C 83 % 1013,2 hPa 0,0 mm 0,0 km/h (0 Bft) O 90 0 min 10,9 C 0,0 km/h (0 Bft)
31.05.2016 19:00 13,7 C 14,0 C 83 % 1013,2 hPa 0,0 mm 0,0 km/h (0 Bft) O 90 0 min 10,9 C 0,0 km/h (0 Bft)
31.05.2016 19:05 13,7 C 13,9 C 83 % 1013,2 hPa 0,0 mm 0,0 km/h (0 Bft) W-SW 247 0 min 10,9 C 0,0 km/h (0 Bft)
31.05.2016 19:10 13,7 C 13,9 C 83 % 1013,1 hPa 0,0 mm 0,0 km/h (0 Bft) N-NO 22 0 min 10,9 C 0,0 km/h (0 Bft)
31.05.2016 19:15 13,7 C 13,9 C 83 % 1013,1 hPa 0,0 mm 0,0 km/h (0 Bft) O-SO 112 0 min 10,9 C 0,0 km/h (0 Bft)
31.05.2016 19:20 13,6 C 13,8 C 83 % 1013,1 hPa 0,0 mm 0,0 km/h (0 Bft) S 180 0 min 10,8 C 0,0 km/h (0 Bft)
31.05.2016 19:25 13,5 C 13,6 C 83 % 1013,1 hPa 0,0 mm 0,0 km/h (0 Bft) SO 135 0 min 10,7 C 0,0 km/h (0 Bft)
31.05.2016 19:30 13,3 C 13,5 C 83 % 1013,1 hPa 0,0 mm 0,0 km/h (0 Bft) N 360 0 min 10,5 C 0,0 km/h (0 Bft)
31.05.2016 19:35 13,3 C 13,4 C 83 % 1013,1 hPa 0,0 mm 0,0 km/h (0 Bft) N 360 0 min 10,5 C 0,0 km/h (0 Bft)
31.05.2016 19:40 13,3 C 13,4 C 83 % 1013,1 hPa 0,0 mm 0,0 km/h (0 Bft) NO 45 0 min 10,5 C 0,0 km/h (0 Bft)
31.05.2016 19:45 13,2 C 13,4 C 84 % 1013,1 hPa 0,0 mm 0,0 km/h (0 Bft) O-SO 112 0 min 10,6 C 0,0 km/h (0 Bft)
31.05.2016 19:50 13,2 C 13,4 C 84 % 1013,2 hPa 0,0 mm 0,0 km/h (0 Bft) S 180 0 min 10,6 C 0,0 km/h (0 Bft)
31.05.2016 19:55 13,2 C 13,5 C 84 % 1013,2 hPa 0,0 mm 0,0 km/h (0 Bft) N-NO 22 0 min 10,6 C 0,0 km/h (0 Bft)
31.05.2016 20:00 13,2 C 13,4 C 84 % 1013,2 hPa 0,0 mm 0,0 km/h (0 Bft) SW 225 0 min 10,6 C 0,0 km/h (0 Bft)
31.05.2016 20:05 13,1 C 13,3 C 84 % 1013,2 hPa 0,0 mm 0,0 km/h (0 Bft) S 180 0 min 10,5 C 0,0 km/h (0 Bft)
31.05.2016 20:10 13,0 C 13,2 C 84 % 1013,2 hPa 0,0 mm 0,0 km/h (0 Bft) S 180 0 min 10,4 C 0,0 km/h (0 Bft)
31.05.2016 20:15 12,9 C 13,1 C 85 % 1013,2 hPa 0,0 mm 0,0 km/h (0 Bft) S 180 0 min 10,4 C 0,0 km/h (0 Bft)
31.05.2016 20:20 12,8 C 12,9 C 85 % 1013,2 hPa 0,0 mm 0,0 km/h (0 Bft) S-SO 157 0 min 10,3 C 0,0 km/h (0 Bft)
31.05.2016 20:25 12,8 C 12,8 C 86 % 1013,2 hPa 0,0 mm 0,0 km/h (0 Bft) S-SO 157 0 min 10,5 C 0,0 km/h (0 Bft)
31.05.2016 20:30 12,8 C 12,7 C 86 % 1013,4 hPa 0,0 mm 0,0 km/h (0 Bft) S 180 0 min 10,5 C 0,0 km/h (0 Bft)
31.05.2016 20:35 12,7 C 12,6 C 86 % 1013,4 hPa 0,0 mm 0,0 km/h (0 Bft) S 180 0 min 10,4 C 0,0 km/h (0 Bft)
31.05.2016 20:40 12,6 C 12,6 C 86 % 1013,4 hPa 0,0 mm 0,0 km/h (0 Bft) S 180 0 min 10,3 C 0,0 km/h (0 Bft)
31.05.2016 20:45 12,6 C 12,6 C 86 % 1013,4 hPa 0,0 mm 0,0 km/h (0 Bft) S-SO 157 0 min 10,3 C 0,0 km/h (0 Bft)
31.05.2016 20:50 12,6 C 12,5 C 86 % 1013,6 hPa 0,0 mm 0,0 km/h (0 Bft) SO 135 0 min 10,3 C 0,0 km/h (0 Bft)
31.05.2016 20:55 12,5 C 12,4 C 86 % 1013,6 hPa 0,0 mm 0,0 km/h (0 Bft) SO 135 0 min 10,2 C 0,0 km/h (0 Bft)
31.05.2016 21:00 12,4 C 12,4 C 86 % 1013,6 hPa 0,0 mm 0,0 km/h (0 Bft) O-SO 112 0 min 10,1 C 0,0 km/h (0 Bft)
31.05.2016 21:05 12,4 C 12,4 C 86 % 1013,6 hPa 0,0 mm 0,0 km/h (0 Bft) S-SO 157 0 min 10,1 C 0,0 km/h (0 Bft)
31.05.2016 21:10 12,5 C 12,5 C 86 % 1013,8 hPa 0,0 mm 0,0 km/h (0 Bft) O-NO 67 0 min 10,2 C 0,0 km/h (0 Bft)
31.05.2016 21:15 12,5 C 12,5 C 86 % 1013,8 hPa 0,7 mm 0,0 km/h (0 Bft) N 360 0 min 10,2 C 0,0 km/h (0 Bft)
31.05.2016 21:20 12,5 C 12,5 C 86 % 1013,8 hPa 0,0 mm 0,0 km/h (0 Bft) S 180 0 min 10,2 C 0,0 km/h (0 Bft)
31.05.2016 21:25 12,5 C 12,4 C 86 % 1013,8 hPa 0,0 mm 0,0 km/h (0 Bft) O-SO 112 0 min 10,2 C 0,0 km/h (0 Bft)
31.05.2016 21:30 12,2 C 12,1 C 86 % 1014,2 hPa 0,0 mm 0,0 km/h (0 Bft) O 90 0 min 9,9 C 0,0 km/h (0 Bft)
31.05.2016 21:35 12,1 C 11,9 C 86 % 1014,2 hPa 0,0 mm 0,0 km/h (0 Bft) SO 135 0 min 9,8 C 0,0 km/h (0 Bft)
31.05.2016 21:40 11,8 C 11,5 C 86 % 1014,2 hPa 0,0 mm 0,0 km/h (0 Bft) SW 225 0 min 9,5 C 0,0 km/h (0 Bft)
31.05.2016 21:45 11,5 C 11,3 C 86 % 1014,2 hPa 0,0 mm 0,0 km/h (0 Bft) O-SO 112 0 min 9,2 C 0,0 km/h (0 Bft)
31.05.2016 21:50 11,3 C 11,1 C 86 % 1014,2 hPa 0,0 mm 0,0 km/h (0 Bft) O-NO 67 0 min 9,0 C 0,0 km/h (0 Bft)
31.05.2016 21:55 11,2 C 11,0 C 86 % 1014,2 hPa 0,0 mm 0,0 km/h (0 Bft) SO 135 0 min 8,9 C 0,0 km/h (0 Bft)
31.05.2016 21:58 11,1 C 10,9 C 86 % 1014,2 hPa 0,0 mm 0,0 km/h (0 Bft) NO 45 0 min 8,8 C 0,0 km/h (0 Bft)
31.05.2016 22:01 11,1 C 10,9 C 86 % 1014,2 hPa 0,0 mm 0,0 km/h (0 Bft) NO 45 0 min 8,8 C 0,0 km/h (0 Bft)
31.05.2016 22:05 11,1 C 10,8 C 86 % 1014,2 hPa 0,0 mm 0,0 km/h (0 Bft) W 270 0 min 8,8 C 0,0 km/h (0 Bft)
31.05.2016 22:10 11,0 C 10,8 C 86 % 1014,1 hPa 0,0 mm 0,0 km/h (0 Bft) O-NO 67 0 min 8,7 C 0,0 km/h (0 Bft)
31.05.2016 22:15 10,9 C 10,7 C 86 % 1014,1 hPa 0,0 mm 0,0 km/h (0 Bft) O-NO 67 0 min 8,7 C 0,0 km/h (0 Bft)
31.05.2016 22:20 10,9 C 10,7 C 86 % 1014,1 hPa 0,0 mm 0,0 km/h (0 Bft) NW 315 0 min 8,7 C 0,0 km/h (0 Bft)
31.05.2016 22:25 10,8 C 10,7 C 86 % 1014,1 hPa 0,0 mm 0,0 km/h (0 Bft) N-NO 22 0 min 8,6 C 0,0 km/h (0 Bft)
31.05.2016 22:30 10,8 C 10,7 C 86 % 1014,1 hPa 0,0 mm 0,0 km/h (0 Bft) S 180 0 min 8,6 C 0,0 km/h (0 Bft)
31.05.2016 22:35 10,8 C 10,7 C 86 % 1014,1 hPa 0,0 mm 0,0 km/h (0 Bft) N-NW 337 0 min 8,6 C 0,0 km/h (0 Bft)
31.05.2016 22:40 10,8 C 10,7 C 86 % 1014,1 hPa 0,0 mm 0,0 km/h (0 Bft) N-NO 22 0 min 8,6 C 0,0 km/h (0 Bft)
31.05.2016 22:45 10,8 C 10,7 C 86 % 1014,1 hPa 0,0 mm 0,0 km/h (0 Bft) W-NW 292 0 min 8,6 C 0,0 km/h (0 Bft)
31.05.2016 22:50 10,8 C 10,7 C 86 % 1014,2 hPa 0,0 mm 0,0 km/h (0 Bft) NW 315 0 min 8,6 C 0,0 km/h (0 Bft)
31.05.2016 22:55 10,8 C 10,7 C 86 % 1014,2 hPa 0,0 mm 0,0 km/h (0 Bft) S-SW 202 0 min 8,6 C 0,0 km/h (0 Bft)
31.05.2016 23:00 10,8 C 10,6 C 86 % 1014,2 hPa 0,0 mm 0,0 km/h (0 Bft) O-NO 67 0 min 8,6 C 0,0 km/h (0 Bft)
31.05.2016 23:05 10,7 C 10,6 C 86 % 1014,2 hPa 0,0 mm 0,0 km/h (0 Bft) NO 45 0 min 8,5 C 0,0 km/h (0 Bft)
31.05.2016 23:10 10,7 C 10,6 C 86 % 1014,2 hPa 0,0 mm 0,0 km/h (0 Bft) NO 45 0 min 8,5 C 0,0 km/h (0 Bft)
31.05.2016 23:15 10,6 C 10,5 C 86 % 1014,2 hPa 0,0 mm 0,0 km/h (0 Bft) N-NO 22 0 min 8,4 C 0,0 km/h (0 Bft)
31.05.2016 23:20 10,6 C 10,5 C 86 % 1014,2 hPa 0,7 mm 0,0 km/h (0 Bft) S 180 0 min 8,4 C 0,0 km/h (0 Bft)
31.05.2016 23:25 10,5 C 10,5 C 86 % 1014,2 hPa 0,0 mm 0,0 km/h (0 Bft) S-SW 202 0 min 8,3 C 0,0 km/h (0 Bft)
31.05.2016 23:30 10,5 C 10,5 C 87 % 1014,5 hPa 0,0 mm 0,0 km/h (0 Bft) S 180 0 min 8,4 C 0,0 km/h (0 Bft)
31.05.2016 23:35 10,5 C 10,5 C 87 % 1014,5 hPa 0,0 mm 0,0 km/h (0 Bft) O 90 0 min 8,4 C 0,0 km/h (0 Bft)
31.05.2016 23:40 10,5 C 10,4 C 87 % 1014,5 hPa 0,0 mm 0,0 km/h (0 Bft) S 180 0 min 8,4 C 0,0 km/h (0 Bft)
31.05.2016 23:45 10,5 C 10,4 C 87 % 1014,5 hPa 0,0 mm 0,0 km/h (0 Bft) S 180 0 min 8,4 C 0,0 km/h (0 Bft)
31.05.2016 23:50 10,5 C 10,4 C 87 % 1014,4 hPa 0,0 mm 0,0 km/h (0 Bft) S 180 0 min 8,4 C 0,0 km/h (0 Bft)
31.05.2016 23:55 10,5 C 10,3 C 87 % 1014,4 hPa 0,0 mm 0,0 km/h (0 Bft) SW 225 0 min 8,4 C 0,0 km/h (0 Bft)
_ Min-Zeit 05:20 05:20 13:30 02:45 - 23:55 - - - 05:20 23:55
Minimum _ 8,3 C 8,0 C 68 % 1010,8 hPa - 0,0 km/h (0 Bft) - - - 6,3 C 0,0 km/h (0 Bft)
_ Max-Zeit 13:30 09:15 06:50 23:45 15:40 12:05 - - 13:15 08:15 13:10
Maximum _ 16,2 C 22,7 C 88 % 1014,5 hPa 1,4 mm 9,8 km/h
NO (2 Bft)
- - 5 min 11,5 C 20,3 km/h
N-NW (4 Bft)
Durchschnitt _ 12,3 C 13,3 C 82 % 1012,7 hPa #11,7 mm 1,7 km/h (1 Bft) N-NO - #5:40 h 9,2 C 2,4 km/h (1 Bft)